Voltar ao catálogo

AETHER-10

AtivoComunicaçõesSSO
NORAD 67381·PAYLOAD·🇨🇦 Canada

Lançado Jan 11, 2026 de Vandenberg Space Force Base

Loading…

Próximas Passagens (próximas 24 horas)

TLE

AtualizadoSource: Space-Track

Época: Sep 14, 2026, 10:42 UTC

1 67381U 26004U   26257.44638276  .00000476  00000-0  60629-4 0  9993
2 67381  97.8107 254.4956 0000469 180.1285 179.9930 14.85915167 36541

Acompanhe AETHER-10 em tempo real com AllMySat

Download on the App Store